Theta_e
309 309 310 311 312 313 312 311 311 311 311 312 312 313 314 315 316 332 340 336 332 339 351 354 356 357 357 358 343 346 370 357 355 353 350 345 346 345 346 348 349 349 349 344 342
310 310 311 313 314 315 316 315 314 312 312 312 313 313 314 316 321 328 332 328 323 342 355 356 359 345 346 350 358 358 364 350 350 351 351 346 346 347 348 348 352 350 346 342 340
312 310 311 314 316 316 316 316 315 314 313 313 313 314 315 316 331 337 330 328 324 341 356 354 353 352 352 349 354 356 352 352 350 351 350 349 347 346 346 349 349 349 343 340 340
314 311 312 314 315 315 315 315 316 315 314 313 313 314 315 323 336 339 328 328 332 350 358 359 351 358 357 359 352 349 349 349 351 351 351 352 347 348 347 347 346 344 341 341 340
316 312 312 314 315 314 314 315 315 315 314 313 314 315 322 330 330 338 327 326 345 356 361 352 348 348 348 350 345 345 348 348 351 351 352 351 350 349 347 346 344 343 341 341 340
316 313 313 314 314 313 313 314 315 314 314 314 314 316 329 326 345 348 344 346 350 356 353 347 347 344 346 345 343 344 348 347 349 352 352 354 348 351 348 345 345 342 342 342 340
316 315 313 315 315 314 313 313 314 314 314 314 315 321 328 329 333 345 348 349 353 348 348 345 343 344 343 344 343 346 348 346 349 352 350 340 348 352 350 346 347 345 344 344 342
317 316 314 316 316 316 316 315 314 314 315 315 316 326 330 327 329 338 345 347 349 348 346 347 344 343 341 343 344 347 348 351 349 353 348 345 352 347 351 348 348 347 346 346 345
319 318 315 316 318 318 319 319 317 316 316 316 323 328 327 324 324 331 340 344 345 346 345 345 341 340 339 342 347 346 353 349 347 346 352 353 359 354 352 350 349 348 347 346 346
320 319 315 317 318 319 320 320 320 316 317 326 328 329 327 326 326 330 340 341 338 341 341 341 341 341 339 340 348 346 350 349 343 338 339 343 354 351 352 352 350 349 349 349 347
320 319 315 317 319 321 323 324 331 330 330 334 326 328 326 327 326 330 338 338 336 334 336 337 338 337 337 336 337 343 339 340 344 342 339 341 345 354 351 352 352 351 350 349 348
319 317 316 318 319 321 322 332 330 330 333 329 324 325 326 327 326 328 334 335 333 332 332 333 333 332 331 334 332 333 335 341 344 342 344 337 341 350 352 348 352 353 352 351 350
319 315 316 318 319 322 326 330 328 330 330 324 326 326 326 326 327 327 331 332 332 330 329 329 330 330 329 328 328 330 332 334 344 342 343 336 346 351 350 347 346 349 351 352 351
318 316 317 318 321 329 331 330 330 330 332 325 325 327 327 328 327 328 327 330 329 328 328 328 328 328 327 326 327 327 329 330 331 334 339 338 349 352 345 344 348 346 348 350 351
319 318 318 318 323 330 332 330 330 330 335 328 327 327 328 328 328 327 327 328 326 328 327 326 327 327 327 327 328 328 329 329 329 331 334 338 339 351 347 346 351 346 348 347 351
320 319 319 321 321 326 330 330 331 334 332 329 327 326 326 327 327 327 327 327 328 327 327 327 328 327 326 327 328 330 329 329 330 330 333 334 337 345 347 348 341 337 340 345 348
321 320 319 326 333 331 331 333 339 338 330 331 328 328 328 327 326 326 325 325 326 327 328 329 328 328 327 327 330 332 330 331 331 331 332 333 339 343 340 338 337 338 336 337 344
324 322 325 322 329 332 333 337 343 330 331 330 330 329 328 328 328 327 327 328 329 328 327 329 328 328 329 331 331 331 330 330 334 332 331 333 334 336 333 339 340 341 340 343 341
327 329 328 334 331 331 336 340 337 332 331 330 331 331 330 328 329 328 328 331 331 330 330 334 332 332 330 330 330 330 331 330 330 329 328 329 331 334 336 338 341 345 347 349 347
326 336 337 334 332 333 336 336 333 331 330 330 331 333 333 331 329 330 331 332 331 330 331 331 333 333 332 332 332 331 331 329 329 332 332 334 340 342 340 338 341 348 351 355 353
330 337 335 331 331 333 336 336 333 331 330 330 332 332 332 333 332 333 333 333 332 330 331 330 332 333 333 333 333 332 330 328 329 332 331 329 337 339 342 342 344 348 356 356 354
332 336 333 332 332 334 334 334 323 331 332 331 330 332 333 333 333 334 333 334 332 332 331 331 332 331 330 331 331 330 327 327 328 331 331 333 345 339 339 345 348 353 355 357 355
334 335 333 330 330 333 335 333 330 331 332 333 333 331 331 331 332 333 333 332 331 331 332 333 333 330 331 332 332 332 331 330 329 329 330 330 339 337 341 346 348 351 356 350 342
336 335 334 333 332 331 333 332 332 331 329 331 332 333 332 333 333 332 332 332 330 329 331 328 327 327 329 331 332 333 332 331 329 329 330 331 337 338 338 343 346 348 351 356 349
338 334 334 335 335 335 333 331 331 332 331 330 331 332 332 334 335 335 333 332 332 338 330 330 330 330 330 330 330 331 330 328 328 329 329 329 329 331 331 334 345 344 347 351 357
333 334 333 334 332 332 330 331 331 331 331 332 331 331 332 332 332 333 334 333 332 331 331 331 332 332 332 331 331 331 331 331 329 327 326 326 327 329 329 336 339 345 345 348 353
331 330 333 331 332 332 331 332 334 333 332 331 330 331 332 332 332 331 331 329 329 330 330 330 330 332 333 332 332 333 332 330 328 328 327 327 327 328 328 330 334 340 349 347 350
Wind_Speed
18 17 16 15 15 15 15 14 14 14 15 15 14 15 18 22 23 9 10 2 6 8 11 11 17 13 4 13 3 6 4 7 11 15 9 10 12 11 14 10 17 15 12 29 29
18 17 17 15 15 15 14 14 13 13 13 14 13 14 16 21 20 18 11 8 6 12 13 19 15 26 6 5 9 4 4 14 17 18 9 12 15 10 10 11 20 22 28 35 30
18 17 16 16 15 15 13 13 13 11 12 12 12 14 15 18 12 5 4 6 7 15 17 11 14 21 11 10 9 7 10 17 15 12 8 15 9 9 10 13 18 24 28 28 30
18 16 16 16 15 14 12 12 11 10 10 10 11 12 14 6 4 4 3 7 9 13 14 24 17 17 14 13 14 8 10 12 11 10 7 8 7 5 4 15 22 24 28 26 26
18 16 16 15 13 12 11 10 8 8 8 8 9 12 7 9 11 2 2 9 11 10 15 17 18 14 19 11 10 11 7 9 11 7 11 6 4 7 14 19 24 25 25 25 24
18 16 15 13 12 11 9 8 7 7 6 6 8 9 5 14 10 5 7 11 10 13 20 14 15 16 18 21 9 9 1 6 10 9 11 12 8 10 14 20 26 24 24 23 24
17 16 14 12 11 9 8 7 6 6 6 6 6 5 10 14 1 5 7 11 12 15 17 16 14 17 19 21 12 25 21 31 12 13 8 22 17 7 14 18 23 25 21 20 23
16 15 13 11 9 8 7 6 6 6 6 6 6 4 7 8 5 7 11 12 15 12 16 16 16 17 17 18 8 26 9 9 12 15 13 20 14 29 15 19 22 22 21 21 22
17 15 11 9 10 11 10 7 5 5 5 5 5 8 11 6 12 14 15 15 13 13 14 15 14 17 20 5 14 2 10 22 11 11 19 12 16 28 23 19 19 21 21 20 21
18 14 9 9 10 10 3 3 3 4 4 6 14 8 11 12 11 15 12 12 10 11 13 14 14 15 16 10 6 6 11 22 3 5 3 7 20 17 19 20 19 19 20 19 20
19 12 7 7 9 4 3 1 4 6 13 11 10 9 5 12 5 10 13 9 12 12 14 17 14 13 20 16 7 20 16 14 18 19 18 8 0 17 14 19 17 19 18 20 20
18 9 6 6 8 7 8 7 8 10 6 16 8 3 6 9 10 11 14 10 13 13 15 15 12 14 14 17 11 14 15 1 12 19 22 15 4 8 6 12 19 18 20 19 20
15 6 5 7 9 11 14 17 6 8 6 7 11 15 9 9 13 15 14 15 15 13 15 16 15 15 9 13 13 16 14 16 7 17 25 15 10 17 1 19 5 12 17 19 20
12 5 6 8 7 14 18 2 7 7 6 10 10 5 6 10 1 13 14 16 11 13 14 11 11 10 10 14 14 14 13 15 15 10 13 9 4 4 10 21 6 7 11 16 18
11 6 7 9 14 9 6 6 9 9 3 8 8 6 7 11 9 11 9 13 12 12 6 13 5 7 10 10 11 12 14 11 14 14 16 17 7 8 12 11 13 13 12 13 18
10 6 8 8 12 14 12 10 10 7 3 6 7 9 10 12 6 8 8 9 13 12 12 12 9 4 12 12 12 11 12 15 13 12 11 16 6 11 6 18 11 9 10 12 16
8 7 12 10 6 10 11 9 8 6 2 7 12 9 14 6 7 9 10 13 14 13 15 17 15 10 4 12 18 14 14 10 8 9 9 20 10 9 23 16 8 6 2 7 12
7 8 8 19 12 12 12 9 12 5 10 6 3 2 2 3 9 5 9 14 11 7 12 10 6 6 6 5 11 12 14 7 10 8 8 6 3 13 6 14 8 8 7 4 7
8 9 9 13 11 7 7 11 9 9 5 8 7 9 7 6 8 3 10 8 9 11 11 9 3 6 1 5 8 9 10 16 13 9 9 7 1 15 15 13 9 11 8 9 13
8 12 21 6 7 11 8 16 6 7 6 8 12 2 12 12 6 9 8 8 2 1 11 14 8 2 11 11 16 7 8 9 6 8 8 8 12 8 12 10 10 13 8 7 11
5 6 11 7 8 8 11 4 4 5 7 8 9 6 8 9 3 14 5 7 5 6 4 11 10 15 8 6 8 5 11 12 13 9 9 8 5 12 10 8 9 11 9 5 5
8 10 10 6 7 9 11 12 4 9 2 6 4 12 10 9 8 9 2 13 7 9 11 14 9 9 14 15 10 6 7 9 8 6 11 10 6 19 6 11 9 9 7 6 8
6 11 3 7 9 10 5 2 1 9 6 4 5 0 8 8 6 9 9 10 6 7 11 11 8 10 12 5 6 3 6 9 10 11 12 9 3 11 8 10 7 9 9 3 2
5 6 6 5 10 11 14 7 9 8 8 5 11 8 9 9 7 5 8 3 7 3 6 4 12 14 12 15 14 11 10 10 11 11 13 13 6 11 9 10 9 8 5 5 1
5 6 9 7 6 10 13 11 11 9 10 6 6 8 11 12 12 6 9 6 5 12 4 5 11 12 14 16 17 15 14 15 14 13 14 17 18 13 12 6 9 4 4 2 4
6 5 10 13 16 14 11 12 14 12 9 8 11 8 15 7 11 13 10 7 7 6 8 9 12 12 14 15 15 16 14 18 18 15 16 15 17 14 12 5 6 6 2 5 7
15 11 7 9 14 11 11 12 13 4 9 8 12 11 11 7 11 13 9 13 15 14 13 13 11 11 14 14 15 14 15 10 7 8 10 11 12 11 5 4 6 5 10 5 1
Wind_Direction
328 324 322 317 312 306 302 301 300 300 303 308 314 314 315 316 317 307 262 91 219 187 174 192 213 226 248 24 221 149 192 81 44 94 110 122 95 71 88 122 144 170 143 149 150
329 326 323 319 313 306 301 299 297 297 297 301 304 310 312 319 312 269 247 247 258 182 188 218 201 73 77 52 261 257 229 63 68 99 111 99 95 121 125 117 95 92 112 135 147
331 327 325 320 315 308 302 296 293 292 293 297 301 305 308 322 281 185 209 238 221 198 216 251 292 78 316 186 224 260 25 82 78 72 110 101 119 153 136 123 125 134 140 144 151
334 327 322 318 313 309 305 297 293 292 291 292 295 298 304 302 291 70 320 200 196 201 248 269 269 125 213 237 218 185 69 64 79 103 118 104 128 117 125 114 126 141 148 153 159
334 328 324 321 317 310 304 298 291 290 286 287 290 303 315 236 257 50 144 171 183 212 254 274 303 337 331 257 4 28 44 100 101 127 118 121 84 93 103 122 127 143 154 161 166
336 332 328 322 316 311 307 298 292 282 277 278 284 304 257 257 106 109 150 173 199 225 261 266 316 333 300 317 6 335 270 75 119 126 98 75 6 332 123 137 137 153 164 168 175
338 333 328 324 318 312 305 294 285 272 265 262 273 303 264 252 34 166 182 203 226 250 278 331 333 313 317 314 18 5 347 2 157 135 109 60 346 279 155 150 149 160 175 175 179
338 332 327 324 320 315 304 284 267 259 250 252 260 253 262 190 253 206 209 222 245 269 279 295 305 302 278 270 8 39 356 335 136 143 138 96 267 269 197 160 163 168 174 179 186
336 329 322 321 320 312 290 262 253 245 243 241 253 220 250 176 215 223 215 233 224 247 261 277 288 289 290 30 53 18 272 286 169 177 159 148 213 252 162 173 175 176 179 184 188
333 324 313 314 322 322 321 212 227 198 233 247 267 246 236 228 188 201 206 247 254 241 249 246 260 268 268 244 122 235 187 243 274 118 244 237 161 155 157 167 181 182 182 187 192
331 318 299 305 320 289 135 255 204 200 224 253 184 241 136 87 130 216 199 219 261 260 259 253 244 261 274 319 313 201 281 327 11 338 324 288 332 147 166 168 181 185 191 190 197
333 314 283 287 304 275 243 253 27 331 244 225 176 299 317 175 179 199 189 216 227 252 252 249 267 260 272 293 340 298 288 341 46 323 293 276 345 143 117 189 177 188 187 197 191
335 306 265 269 282 267 233 283 335 331 260 160 194 218 186 210 230 169 190 213 246 230 252 270 286 318 326 317 295 282 285 286 170 229 255 255 60 73 10 340 203 192 194 190 191
336 285 257 272 287 249 230 270 306 325 268 137 179 144 191 231 142 139 188 225 223 255 284 258 285 305 320 285 272 281 324 340 324 308 280 246 124 1 140 263 305 213 196 188 189
332 269 250 248 304 290 11 310 324 271 259 153 116 118 187 244 117 184 195 238 268 277 234 278 199 289 266 283 1 302 310 317 290 280 282 273 269 124 188 271 264 203 198 209 180
329 253 241 261 258 259 303 307 278 239 121 133 135 175 190 222 174 128 191 244 284 280 264 263 283 246 287 328 281 276 277 261 248 246 262 266 261 125 189 228 186 147 193 190 194
321 239 229 250 276 333 315 283 248 275 223 145 161 194 215 159 138 173 191 207 234 229 235 215 220 210 196 276 272 245 264 279 240 228 243 14 66 164 217 201 84 109 287 226 196
295 255 258 248 267 296 294 271 267 340 46 73 260 268 242 156 149 189 202 222 206 260 292 296 163 159 143 313 348 326 310 311 327 291 325 121 263 141 229 94 66 79 329 1 281
294 267 245 261 231 271 276 275 312 12 30 323 177 220 167 175 297 213 242 335 41 360 322 341 74 138 193 351 315 327 303 355 314 312 303 306 109 128 87 78 68 60 32 6 304
320 273 252 187 230 245 268 271 24 350 325 293 295 14 303 150 192 210 182 102 7 43 316 318 294 238 142 221 227 227 342 308 308 283 288 2 71 86 65 51 64 61 41 22 331
262 254 133 186 238 257 262 307 8 108 347 301 305 299 261 328 307 305 44 121 128 319 308 303 294 301 290 275 13 336 311 312 313 282 314 289 95 117 115 82 55 71 60 51 329
301 279 136 223 241 249 269 26 357 292 146 284 295 305 326 357 309 312 323 62 40 347 312 315 317 289 290 285 94 339 297 270 285 290 292 308 53 356 11 87 80 88 79 63 19
295 303 187 233 254 278 242 290 228 302 265 304 302 222 353 307 315 296 306 88 43 332 23 345 328 327 305 97 109 218 0 351 306 289 289 288 126 236 141 98 60 61 96 80 305
282 299 210 209 261 288 296 307 262 159 292 320 310 328 291 274 223 282 297 212 105 83 85 322 272 266 283 319 329 315 311 309 304 303 311 304 160 73 280 128 115 81 52 109 190
250 319 4 296 325 337 326 317 307 278 182 270 289 272 287 302 301 268 249 268 274 130 216 273 280 296 304 313 316 316 307 299 289 283 285 299 312 315 336 87 98 92 114 143 179
341 348 341 302 296 282 271 269 279 269 281 271 274 256 297 291 298 304 333 322 290 224 258 265 283 272 273 273 275 278 288 278 272 268 276 276 282 287 295 117 148 154 193 191 180
7 336 313 289 294 282 273 287 314 328 311 304 293 308 298 2 340 334 333 306 293 284 277 282 288 299 294 311 306 289 275 288 327 322 324 301 309 295 289 331 331 205 161 271 129